www.pogodaiklimat.ru

Погода и климат >> Архив погоды >> Мексика >> Мехико


АРХИВ ПОГОДЫ в Мехико

Время (UTC), дата Ветер
(напр.,м/с)
 
Видим.   Явления Облачность Т
(С)
Тd
(С)
f
(%)
Тe
(С)
Тes
(С)
Комфортность P
(гПа)
Po
(гПа)
Тmin
(С)
Tmax
(С)
R
(мм)
R24
(мм)
S
(см)
06 17.07 СЗ 2 16 км дым ясно +15.2 +12.0 81 +15 +15 по сезону 1010.8 778.1 +26.8
09 17.07 СЗ 2 13 км дым ясно +14.0 +11.8 87 +13 +13 по сезону 1011.7 777.0
12 17.07 З 2 10 км дым {туман} 4/0 2000 м
[Ac und Cs]
+13.8 +11.9 88 +13 +13 по сезону 1015.2 778.2 +13.5 +26.8
15 17.07 С 1 3000 м дым {туман} 9/1 840 м
[Cu med, cong Cs]
+16.8 +13.8 82 +18 +25 тепло 1015.7 778.1
18 17.07 ЮВ 2 3000 м мгла 9/9 750 м
[Cu Sc]
+21.6 +13.0 58 +24 +26 комфорт 1014.4 777.9 +13.0 +22.0
21 17.07 ЮВ 3 8000 м дым 10/9 750 м
[Cu Sc As op]
+21.6 +12.3 55 +24 +24 комфорт 1011.1 776.6
00 18.07 З 3 10 км дым 10/8 750 м
[Sc diur, vesp Ac cuf]
+19.8 +12.9 64 +22 +22 комфорт 1008.7 776.0 +13.0 +22.0
03 18.07 СЗ 2 8000 м дым 8/5 750 м
[Sc diur, vesp As op]
+17.6 +12.1 70 +18 +18 тепло 1009.6 777.2
12 18.07 СЗ 2 3000 м дым 9/0 2000 м
[Ac und Cc]
+13.8 +11.9 88 +13 +13 по сезону 1014.0 777.5 +13.6 +22.0
15 18.07 СВ 1 3000 м мгла {туман} 3/3 840 м
[Cu hum]
+17.0 +13.4 79 +18 +25 тепло 1015.1 777.8
18 18.07 В 2 3000 м мгла 8/8 840 м
[Cu hum]
+23.0 +13.9 57 +26 +31 жарко 1013.5 777.4 +13.0 +23.6
21 18.07 ЮВ 3 6000 м слаб. морось 10/8 750 м
[Cb cap As op]
+23.6 +13.3 52 +26 +26 жарко 1008.4 775.2 0.0
00 19.07 С 3 4000 м дым {морось} 10/9 600 м
[Cb cap As op]
+19.7 +12.0 61 +21 +21 комфорт 1006.1 774.6 +13.0 +26.2 0.0
03 19.07 СЗ 4 4000 м слаб. дождь 10/8 750 м
[Cb cap As op]
+13.6 +12.7 94 +12 +12 холодно 1010.4 777.7 18
06 19.07 ЮЗ 1 3000 м морось 10/4 600 м
[Sc diur, vesp As op]
+13.5 +13.0 97 +14 +14 по сезону 1012.7 778.2 24
12 19.07 ЮЗ 2 5000 м дым {туман} 9/3 840 м
[Cu med, cong Ac und]
+13.8 +12.9 94 +13 +13 по сезону 1014.3 776.4 +12.6 +26.2
18 19.07 С 2 3000 м дым {туман} 8/3 750 м
[Sc diur, vesp]
+22.8 +15.4 63 +27 +37 душно 1012.2 776.4 +12.6 +23.5
21 19.07 СВ 3 6000 м дым 9/9 750 м
[Cu Sc]
+23.4 +12.7 51 +26 +28 жарко 1007.7 774.5
00 20.07 С 5 8000 м слаб. морось 10/9 600 м
[Cb cap As op]
+17.0 +14.0 82 +16 +16 прохладно 1006.8 774.7 +12.6 +24.8 0.1
03 20.07 СЗ 2 8000 м дым {дождь} 8/4 750 м
[Sc diur, vesp As op]
+14.6 +13.1 91 +14 +14 прохладно 1009.2 776.4 2
12 20.07 З 1 3000 м дым 3/0
[Ac und]
+13.4 +12.5 94 +13 +13 по сезону 1013.6 776.2 +12.6
15 20.07 З 2 3000 м дым {туман} 8/5 750 м
[Cu Sc As op]
+16.3 +13.8 85 +16 +19 по сезону 1014.8 777.1
18 20.07 С 2 3000 м мгла 8/6 840 м
[Cu hum Ci fib]
+21.9 +13.8 60 +25 +33 комфорт 1012.6 776.3 +12.6 +22.5
21 20.07 СВ 2 2000 м мгла 10/6 800 м
[Cu med, cong Cs]
+24.0 +13.5 52 +26 +31 жарко 1008.3 774.6
00 21.07 С 2 5000 м мгла 10/4 750 м
[Cu Sc As trans Cs]
+22.0 +13.1 57 +25 +25 комфорт 1005.2 773.8 +12.6 +25.6
03 21.07 З 3 6000 м слаб. морось 10/9 750 м
[Cb cap As op]
+16.2 +13.8 86 +16 +16 по сезону 1007.2 775.7 0.2
06 21.07 СЗ 2 12 км дым 9/0
[As op]
+13.7 +12.0 89 +13 +13 по сезону 1010.1 776.9 6
12 21.07 З 1 3000 м дым 6/3 840 м
[Cu hum As trans]
+13.6 +12.1 91 +14 +14 по сезону 1014.5 777.3 +13.4 +25.6
15 21.07 Ю 1 3000 м дым 8/1 840 м
[Cu hum Ac trans Ci fib]
+17.6 +12.9 74 +19 +24 тепло 1015.7 777.9
18 21.07 СВ 1 3000 м мгла 5/3 840 м
[Cu med, cong Ci fib]
+23.7 +14.8 57 +26 +43 жарко 1012.3 776.7 +13.4 +24.4
21 21.07 ЮВ 5 4000 м осадки на расстоянии 10/8 750 м
[Cu Sc As op]
+22.0 +14.4 62 +25 +26 комфорт 1008.2 775.2
00 22.07 З 2 4000 м мгла 10/5 800 м
[Cu med, cong As op]
+17.7 +12.7 73 +18 +18 по сезону 1007.8 775.5 +13.4 +26.6 0.4
03 22.07 ЮВ 1 5000 м дым 10/5 750 м
[Cu med, cong As op]
+16.7 +12.1 74 +18 +18 тепло 1009.9 777.2
12 22.07 Ю 1 12 км дым 1/0
[Ac und]
+13.0 +11.8 92 +13 +13 по сезону 1013.4 776.9 +12.5
15 22.07 С 2 3000 м дым {туман} 3/1 840 м
[Cu hum Ci fib]
+17.4 +14.1 81 +18 +25 тепло 1015.1 777.4
18 22.07 С 2 4000 м мгла 6/6 750 м
[Cu hum]
+21.8 +13.6 60 +25 +33 комфорт 1013.4 777.2 +12.5 +22.8
21 22.07 СВ 3 6000 м дым 9/8 750 м
[Cu Sc Cs]
+23.8 +13.9 54 +26 +28 жарко 1008.7 775.1
00 23.07 СЗ 3 12 км дым 9/6 750 м
[Cu Sc As op]
+21.2 +10.7 51 +23 +23 комфорт 1006.9 775.1 +12.5 +25.1
09 23.07 СЗ 2 9000 м дым ясно +14.9 +13.1 89 +15 +15 по сезону 1011.6 777.0
12 23.07 З 2 6000 м дым {туман} 3/0
[Ac und]
+13.8 +12.6 92 +13 +13 по сезону 1013.7 777.4 +12.6
15 23.07 СЗ 2 3000 м дым {туман} 5/4 840 м
[Cu hum Ac trans]
+16.8 +12.9 78 +17 +22 по сезону 1015.8 778.4
18 23.07 СВ 2 3000 м мгла 4/4 750 м
[Cu hum]
+22.0 +13.4 58 +25 +38 комфорт 1013.6 777.5 +12.6 +23.0
21 23.07 Ю 4 6000 м дым 9/9 750 м
[Cu Sc]
+21.9 +15.8 68 +26 +27 душно 1009.7 775.7

 

Местоположение метеостанции Мехико (Мексика): широта 19.40 долгота -99.18 высота над уровнем моря 2303 м.

В архиве по умолчанию представлена погода в Мехико за последнюю неделю. Архивные данные за месяц целиком и за предыдущие месяцы, начиная с января 2011 года, Вы можете получить, выбрав интересующий диапазон дат из раскрывающегося списка и нажав кнопку "Ввод!".


*Определитесь, кто Вы:
робот инопланетянин человек

Внимание! Время в таблицах - всемирное. Для получения местного времени необходимо прибавить поправку, которая равна -6 ч.

Смотрите также архив погоды в соседних городах и на ближайших метеорологических станциях:

Погода в Институте Географии (Мексика) (9 км)
Погода в Толуке (Мексика) (54 км)
Погода в Куэрнаваке (Мексика) (58 км)
Погода в Сакатепеке (Мексика) (78 км)
Погода в Пачуке (Мексика) (93 км)
Погода в Тлашкале (Мексика) (98 км)
Погода в Тлашкала аэропорту (Мексика) (99 км)
Погода в Тулансинго (Мексика) (114 км)
Погода в Пуэбле (Мексика) (114 км)
Погода в Керетаро (Мексика) (183 км)

Пояснения к столбцам:

Ветер - указаны скорость ветра в м/с - средняя за 10 мин, порывы в срок и между сроками (в фигурных скобках) и направление, откуда дует ветер: С - северный, СВ - северо-восточный, В - восточный, ЮВ - юго-восточный, Ю - южный, ЮЗ - юго-западный, З - западный, СЗ - северо-западный.
Видимость - горизонтальная дальность видимости в метрах или километрах. При видимости от 1 до 10 км при отсутствии осадков обычно наблюдается дымка, при ухудшении видимости до 1 км и менее - туман. В сухую погоду видимость может ухудшаться дымом, пылью или мглою.
Явления - указаны атмосферные явления, наблюдавшиеся в срок или в последний час перед сроком; фигурными скобками обозначены явления, наблюдавшиеся между сроками (за 1-3 часа до срока); квадратными скобками обозначены град или гололедные отложения с указанием их диаметра в мм.
Облачность - указаны через наклонную черту общая и нижняя облачность в баллах и высота нижней границы облаков в метрах; квадратными скобками обозначены формы облаков: Ci - перистые, Cs - перисто-слоистые, Cc - перисто-кучевые, Ac - высококучевые, As - высокослоистые, Sc - слоисто-кучевые, Ns - слоисто-дождевые, Cu - кучевые, Cb - кучево-дождевые. Подробнее классификацию облаков см. в Атласе облаков (PDF).
T - Температура воздуха - температура, измеренная на высоте 2 м над землей.
Td - Температура точки росы - температура, при понижении до которой содержащийся в воздухе водяной пар достигнет насыщения.
f - Относительная влажность воздуха - влажноcть воздуха, измеренная на высоте 2 м над землей.
Te - Эффективная температура - температура, которую ощущает одетый по сезону человек в тени. Характеристика душности погоды. При расчете учитывается влияние влажности воздуха и скорости ветра на теплоощущения человека.
Tes - Эффективная температура на солнце - температура, которую ощущает человек, с поправкой на солнечный нагрев. Характеристика знойности погоды. Зависит от высоты солнца над горизонтом, облачности и скорости ветра. Ночью, в пасмурную погоду, а также при ветре 12 м/с и более поправка равна нулю.
P - Атмосферное давление - приведенное к уровню моря атмосферное давление.
Po - Атмосферное давление - измеренное на уровне метеостанции атмосферное давление.
Tmin - Минимальная температура - минимум температуры воздуха на высоте 2 м над землей.
Tmax - Максимальная температура - максимум температуры воздуха на высоте 2 м над землей.
R - Количество осадков - Количество выпавших осадков за период времени, мм. При наведении курсора мыши на число - период времени, за который выпало указанное количество осадков.
R24 - Количество осадков - Количество выпавших осадков за 24 часа, мм.
S - Снежный покров - Высота снежного покрова, см. При наведении курсора мыши на число - состояние снежного покрова и степень покрытия местности в баллах.